Location: Hackberry
(29.5783°N, 96.8797°W)
Time: 03:17:47
(UTC+00:00)

Explorer 11/Cluster Stage 4 - Pass Details

Date: 12 November 2024
Orbit: 464 x 1202 km, 28.8° (Epoch: 03 December)

Event Time Altitude Azimuth Distance (km) Brightness Sun altitude
Exits shadow 11:46:45 18° 252° (WSW) 1,424 7.4 -14.0°
Maximum altitude 11:49:49 69° 172° (S) 569 5.9 -13.3°
Drops below altitude 10° 11:53:33 10° 89° (E) 1,667 9.6 -12.6°
Sets 11:55:38 0° 86° (E) 2,506 10.8 -12.1°
